Location: Middlebury
(44.0153°N, 73.1678°W)
Time: 11:39:06
(UTC-04:00)

ISS - Visible Passes

Search period start: 21 July 2018 00:00
Search period end: 31 July 2018 00:00
Orbit: 402 x 408 km, 51.6° (Epoch: 21 July)

Date Brightness Start Highest point End Pass type
(mag) Time Alt. Az. Time Alt. Az. Time Alt. Az.
21 Jul -1.3 01:36:31 10° NW 01:39:14 23° N 01:41:58 10° ENE visible
21 Jul -3.5 03:12:53 10° NW 03:16:10 67° NNE 03:19:26 10° ESE visible
21 Jul -2.3 04:50:03 10° W 04:52:20 18° SW 04:54:38 10° S visible
21 Jul -3.9 21:29:46 10° SW 21:33:00 63° SE 21:36:15 10° ENE visible
21 Jul -1.7 23:06:45 10° W 23:09:41 29° NNW 23:12:38 10° NE visible
22 Jul -1.2 00:44:15 10° NW 00:46:53 21° N 00:49:29 10° NE visible
22 Jul -2.6 02:20:47 10° NW 02:23:56 42° NNE 02:27:06 10° E visible
22 Jul -3.1 03:57:24 10° WNW 04:00:22 31° SW 04:03:19 10° SSE visible
22 Jul -2.4 22:14:17 10° W 22:17:24 40° NNW 22:20:31 10° NE visible
22 Jul -1.1 23:51:53 10° NW 23:54:29 21° N 23:57:05 10° NE visible
23 Jul -1.7 01:28:41 10° NW 01:30:51 27° N 01:30:51 27° N visible
23 Jul -3.2 21:21:55 10° WSW 21:25:09 61° NNW 21:28:25 10° NE visible
23 Jul -1.3 22:59:24 10° WNW 23:02:06 23° N 23:04:47 10° NE visible
24 Jul -1.5 00:36:32 10° NW 00:39:19 24° NNE 00:39:26 24° NNE visible
24 Jul -1.6 22:06:51 10° WNW 22:09:43 27° NNW 22:12:35 10° NE visible
24 Jul -1.3 23:44:17 10° NW 23:46:55 22° N 23:48:29 16° NE visible
25 Jul -0.9 01:20:43 10° NW 01:21:06 13° NW 01:21:06 13° NW visible
25 Jul -2.1 21:14:19 10° W 21:17:22 35° NNW 21:20:26 10° NE visible
25 Jul -1.2 22:51:55 10° NW 22:54:30 21° N 22:57:05 10° NE visible
26 Jul -1.5 00:28:35 10° NW 00:30:19 24° NNW 00:30:19 24° NNW visible
26 Jul -1.3 21:59:25 10° WNW 22:02:04 22° N 22:04:42 10° NE visible
26 Jul -1.8 23:36:26 10° NW 23:39:16 26° NNE 23:39:37 26° NNE visible
27 Jul -1.5 21:06:51 10° WNW 21:09:38 25° NNW 21:12:26 10° NE visible
27 Jul -1.5 22:44:11 10° NW 22:46:51 22° N 22:48:57 13° NE visible
28 Jul -1.2 00:20:33 10° NW 00:21:34 18° NW 00:21:34 18° NW visible
28 Jul -1.4 21:51:48 10° NW 21:54:23 21° N 21:56:59 10° NE visible
28 Jul -2.2 23:28:23 10° NW 23:30:57 35° N 23:30:57 35° N visible
29 Jul -1.4 20:59:19 10° WNW 21:01:55 21° N 21:04:32 10° NE visible
29 Jul -2.0 22:36:11 10° NW 22:39:06 28° NNE 22:40:21 22° NE visible
30 Jul -0.9 00:12:32 10° WNW 00:12:59 13° WNW 00:12:59 13° WNW visible
30 Jul -1.7 21:43:56 10° NW 21:46:39 23° N 21:49:23 10° ENE visible
30 Jul -2.3 23:20:17 10° NW 23:22:23 36° NW 23:22:23 36° NW visible
